DW2633 Weather Reports


time (UTC)temp
C
wind
direction
speed
KPH
gust
KPH
rain 1hr
cm
rain 24hr
cm
rain mn
cm
humidity
%
barometer
mb
20260903190054 25 258 24.1 0.0 0.00 0.00 0.00 80 1010.4
20260903185553 25 236 22.5 0.0 0.00 0.00 0.00 83 1010.4
20260903185052 25 265 17.7 0.0 0.00 0.00 0.00 84 1010.5
20260903184557 25 268 12.9 0.0 0.00 0.00 0.00 84 1010.5
20260903184050 24 281 9.7 0.0 0.00 0.00 0.00 84 1010.6
20260903183548 24 248 8.0 0.0 0.00 0.00 0.00 87 1010.6
20260903183051 23 236 6.4 0.0 0.00 0.00 0.00 87 1010.7
20260903182548 23 240 4.8 0.0 0.00 0.00 0.00 87 1010.6
20260903182044 23 231 4.8 0.0 0.00 0.00 0.00 84 1010.6
20260903181544 23 221 6.4 0.0 0.00 0.00 0.00 87 1010.6
20260903181043 23 221 6.4 0.0 0.00 0.00 0.00 86 1010.7
20260903180543 23 233 8.0 0.0 0.00 0.00 0.00 87 1010.7
20260903180049 23 249 9.7 0.0 0.00 0.00 0.00 87 1010.7
20260903175541 23 229 8.0 0.0 0.00 0.00 0.00 87 1010.8
20260903175040 22 220 6.4 0.0 0.00 0.00 0.00 88 1010.8
20260903174540 22 237 8.0 0.0 0.00 0.00 0.00 90 1010.8
20260903174039 22 253 9.7 0.0 0.00 0.00 0.00 90 1010.8
20260903173536 22 225 8.0 0.0 0.00 0.00 0.00 90 1010.8
20260903173035 22 227 6.4 0.0 0.00 0.00 0.00 91 1011.1
20260903172535 22 249 6.4 0.0 0.00 0.00 0.00 90 1011.1
20260903172035 22 247 6.4 0.0 0.00 0.00 0.00 90 1011.3
20260903171535 22 254 8.0 0.0 0.00 0.00 0.00 91 1011.3
20260903171034 22 243 11.3 0.0 0.00 0.00 0.00 90 1011.3
20260903170537 22 230 14.5 0.0 0.00 0.00 0.00 90 1011.3
20260903170037 22 262 14.5 0.0 0.00 0.00 0.00 91 1011.2
20260903165533 22 260 17.7 0.0 0.00 0.00 0.00 91 1011.2
20260903165034 22 255 20.9 0.0 0.00 0.00 0.00 91 1011.4
20260903164533 22 243 19.3 0.0 0.00 0.00 0.00 90 1011.4
20260903164033 22 263 11.3 0.0 0.00 0.00 0.00 92 1011.4
20260903163531 22 246 6.4 0.0 0.00 0.00 0.00 92 1011.2
20260903163033 22 244 6.4 0.0 0.00 0.00 0.00 91 1011.4
20260903162533 22 229 4.8 0.0 0.00 0.00 0.00 91 1011.4
20260903162031 22 188 3.2 0.0 0.00 0.00 0.00 92 1011.4
20260903161529 22 226 1.6 0.0 0.00 0.00 0.00 92 1011.5
20260903161029 21 225 1.6 0.0 0.00 0.00 0.00 91 1011.5
20260903160529 21 230 3.2 0.0 0.00 0.00 0.00 92 1011.7
20260903160028 21 242 3.2 0.0 0.00 0.00 0.00 91 1011.8
20260903155526 21 223 3.2 0.0 0.00 0.00 0.00 92 1011.9
20260903155026 21 224 4.8 0.0 0.00 0.00 0.00 92 1011.9
20260903154526 21 224 4.8 0.0 0.00 0.00 0.00 92 1011.9
20260903154028 21 250 4.8 0.0 0.00 0.00 0.00 92 1011.9
20260903153524 21 215 4.8 0.0 0.00 0.00 0.00 93 1011.8
20260903153023 21 230 6.4 0.0 0.00 0.00 0.00 92 1011.9
20260903152523 21 226 6.4 0.0 0.00 0.00 0.00 93 1012.0
20260903152023 21 234 6.4 0.0 0.00 0.00 0.00 93 1011.9
20260903151521 21 233 6.4 0.0 0.00 0.00 0.00 92 1011.8
20260903151021 21 235 8.0 0.0 0.00 0.00 0.00 93 1011.9
20260903150521 21 227 9.7 0.0 0.00 0.00 0.00 93 1011.9
20260903150028 21 252 9.7 0.0 0.00 0.00 0.00 93 1011.9
20260903145520 21 222 8.0 0.0 0.00 0.00 0.00 94 1012.0
20260903145019 21 227 6.4 0.0 0.00 0.00 0.00 93 1011.9
20260903144519 21 242 6.4 0.0 0.00 0.00 0.00 94 1011.9
20260903144023 20 223 4.8 0.0 0.00 0.00 0.00 94 1011.8
20260903143518 20 233 3.2 0.0 0.00 0.00 0.00 94 1011.8
20260903143037 20 224 3.2 0.0 0.00 0.00 0.00 94 1011.7
20260903142516 20 214 3.2 0.0 0.00 0.00 0.00 95 1011.7
20260903142016 20 215 4.8 0.0 0.00 0.00 0.00 95 1011.7
20260903141514 20 217 4.8 0.0 0.00 0.00 0.00 95 1011.7
20260903141014 20 225 4.8 0.0 0.00 0.00 0.00 95 1011.8
20260903140517 20 226 4.8 0.0 0.00 0.00 0.00 95 1011.8
20260903140019 20 224 3.2 0.0 0.00 0.00 0.00 96 1011.9
20260903135512 20 223 3.2 0.0 0.00 0.00 0.00 96 1011.8
20260903135012 20 212 3.2 0.0 0.00 0.00 0.00 96 1011.9
20260903134510 19 229 1.6 0.0 0.00 0.00 0.00 96 1012.0
20260903134011 19 165 1.6 0.0 0.00 0.00 0.00 96 1011.9
20260903133508 19 202 1.6 0.0 0.00 0.00 0.00 96 1011.8
20260903133012 19 229 3.2 0.0 0.00 0.00 0.00 96 1011.9
20260903132508 19 232 3.2 0.0 0.00 0.00 0.00 97 1011.8
20260903132006 19 241 3.2 0.0 0.00 0.00 0.00 97 1011.9
20260903131506 18 224 1.6 0.0 0.00 0.00 0.00 97 1011.9
20260903131006 18 193 1.6 0.0 0.00 0.00 0.00 97 1012.0
20260903130504 18 188 1.6 0.0 0.00 0.00 0.00 97 1012.0
20260903130003 18 202 0.0 0.0 0.00 0.00 0.00 97 1012.1
20260903125503 18 223 1.6 0.0 0.00 0.00 0.00 97 1012.0
20260903125004 18 223 3.2 0.0 0.00 0.00 0.00 97 1012.2
20260903124504 18 223 3.2 0.0 0.00 0.00 0.00 97 1012.2
20260903124002 18 219 3.2 0.0 0.00 0.00 0.00 97 1012.1
20260903123504 18 225 1.6 0.0 0.00 0.00 0.00 97 1012.1
20260903123100 18 183 0.0 0.0 0.00 0.00 0.00 97 1012.1
20260903122602 18 178 0.0 0.0 0.00 0.00 0.00 97 1012.1
20260903122059 17 161 1.6 0.0 0.00 0.00 0.00 97 1012.2
20260903121559 17 163 0.0 0.0 0.00 0.00 0.00 97 1012.2
20260903121057 17 219 0.0 0.0 0.00 0.00 0.00 97 1012.3
20260903120557 17 219 1.6 0.0 0.00 0.00 0.00 97 1012.3
20260903120057 17 219 0.0 0.0 0.00 0.00 0.00 97 1012.3
20260903115556 17 219 0.0 0.0 0.00 0.00 0.00 97 1012.4
20260903115056 17 219 0.0 0.0 0.00 0.00 0.00 97 1012.3
20260903114556 17 219 0.0 0.0 0.00 0.00 0.00 97 1012.3
20260903114055 17 219 1.6 0.0 0.00 0.00 0.00 97 1012.2
20260903113554 17 219 1.6 0.0 0.00 0.00 0.00 97 1012.2
20260903113054 17 219 1.6 0.0 0.00 0.00 0.00 97 1012.4
20260903112556 17 218 1.6 0.0 0.00 0.00 0.00 97 1012.4
20260903112054 17 217 1.6 0.0 0.00 0.00 0.00 96 1012.4
20260903111603 17 217 3.2 0.0 0.00 0.00 0.00 96 1012.4
20260903111053 17 221 3.2 0.0 0.00 0.00 0.00 96 1012.5
20260903110556 17 220 3.2 0.0 0.00 0.00 0.00 96 1012.5
20260903110053 17 219 3.2 0.0 0.00 0.00 0.00 96 1012.5
20260903105553 17 218 1.6 0.0 0.00 0.00 0.00 96 1012.4
20260903105053 17 202 0.0 0.0 0.00 0.00 0.00 96 1012.5
20260903104554 17 148 0.0 0.0 0.00 0.00 0.00 96 1012.4
20260903104053 17 148 1.6 0.0 0.00 0.00 0.00 96 1012.4
20260903103552 17 148 1.6 0.0 0.00 0.00 0.00 96 1012.2
20260903103052 17 148 1.6 0.0 0.00 0.00 0.00 96 1012.2
20260903102553 17 148 0.0 0.0 0.00 0.00 0.00 96 1012.2
20260903102051 17 148 0.0 0.0 0.00 0.00 0.00 96 1012.1
20260903101557 17 148 0.0 0.0 0.00 0.00 0.00 96 1012.2
20260903101051 17 148 0.0 0.0 0.00 0.00 0.00 96 1012.2
20260903100551 17 148 1.6 0.0 0.00 0.00 0.00 96 1012.2
20260903100054 17 148 4.8 0.0 0.00 0.00 0.00 96 1012.3
20260903095550 17 149 6.4 0.0 0.00 0.00 0.00 96 1012.3
20260903095050 17 139 6.4 0.0 0.00 0.00 0.00 96 1012.3
20260903094556 17 134 6.4 0.0 0.00 0.00 0.00 96 1012.2
20260903094051 17 141 8.0 0.0 0.00 0.00 0.00 96 1012.2
20260903093621 17 136 8.0 0.0 0.00 0.00 0.00 96 1012.1
20260903093057 17 134 6.4 0.0 0.00 0.00 0.00 96 1012.2
20260903092551 17 134 6.4 0.0 0.00 0.00 0.00 96 1012.3
20260903092049 17 134 6.4 0.0 0.00 0.00 0.00 96 1012.2
20260903091549 17 137 6.4 0.0 0.00 0.00 0.00 96 1012.1
20260903091049 17 138 6.4 0.0 0.00 0.00 0.00 96 1012.0
20260903090549 17 136 4.8 0.0 0.00 0.00 0.00 96 1011.9
20260903090049 17 144 3.2 0.0 0.00 0.00 0.00 96 1012.1
20260903085548 17 163 6.4 0.0 0.00 0.00 0.00 96 1012.2
20260903085049 17 138 6.4 0.0 0.00 0.00 0.00 96 1012.0
20260903084548 17 137 6.4 0.0 0.00 0.00 0.00 96 1012.1
20260903084048 17 134 6.4 0.0 0.00 0.00 0.00 96 1012.1
20260903083547 17 152 6.4 0.0 0.00 0.00 0.00 96 1012.1
20260903083052 17 135 8.0 0.0 0.00 0.00 0.00 96 1012.2
20260903082548 17 137 6.4 0.0 0.00 0.00 0.00 96 1012.4
20260903082045 17 140 6.4 0.0 0.00 0.00 0.00 96 1012.4
20260903081548 17 131 6.4 0.0 0.00 0.00 0.00 96 1012.2
20260903081045 17 151 6.4 0.0 0.00 0.00 0.00 96 1012.3
20260903080548 17 137 8.0 0.0 0.00 0.00 0.00 96 1012.3
20260903080048 17 133 9.7 0.0 0.00 0.00 0.00 96 1012.3
20260903075544 17 135 11.3 0.0 0.00 0.00 0.00 96 1012.3
20260903075044 17 135 9.7 0.0 0.00 0.00 0.00 96 1012.2
20260903074545 17 132 9.7 0.0 0.00 0.00 0.00 96 1012.3
20260903074044 17 136 11.3 0.0 0.00 0.00 0.00 96 1012.3
20260903073543 17 136 11.3 0.0 0.00 0.00 0.00 96 1012.4
20260903073043 17 133 9.7 0.0 0.00 0.00 0.00 96 1012.4
20260903072542 17 128 9.7 0.0 0.00 0.00 0.00 96 1012.4
20260903072042 17 148 9.7 0.0 0.00 0.00 0.00 96 1012.4
20260903071543 17 135 11.3 0.0 0.00 0.00 0.00 96 1012.4
20260903071042 17 140 12.9 0.0 0.00 0.00 0.00 96 1012.4
20260903070544 17 130 11.3 0.0 0.00 0.00 0.00 96 1012.5
20260903070041 17 155 11.3 0.0 0.00 0.00 0.00 96 1012.4
20260903065541 17 111 12.9 0.0 0.00 0.00 0.00 96 1012.4
20260903065040 17 126 12.9 0.0 0.00 0.00 0.00 96 1012.4
20260903064542 17 134 12.9 0.0 0.00 0.00 0.00 96 1012.4
20260903064040 17 129 11.3 0.0 0.00 0.00 0.00 96 1012.4
20260903063539 17 140 9.7 0.0 0.00 0.00 0.00 96 1012.4
20260903063039 17 129 9.7 0.0 0.00 0.00 0.00 96 1012.3
20260903062539 17 134 11.3 0.0 0.00 0.00 0.00 96 1012.3
20260903062039 17 131 14.5 0.0 0.00 0.00 0.00 96 1012.3
20260903061550 17 135 12.9 0.0 0.00 0.00 0.00 96 1012.2
20260903061037 17 130 9.7 0.0 0.00 0.00 0.00 96 1012.4
20260903060536 17 130 8.0 0.0 0.00 0.00 0.00 96 1012.5
20260903060040 17 136 9.7 0.0 0.00 0.00 0.00 96 1012.5
20260903055535 17 123 8.0 0.0 0.00 0.00 0.00 95 1012.6
20260903055035 17 133 9.7 0.0 0.00 0.00 0.00 95 1012.6
20260903054536 17 148 8.0 0.0 0.00 0.00 0.00 95 1012.5
20260903054035 17 156 4.8 0.0 0.00 0.00 0.00 95 1012.6
20260903053535 17 157 8.0 0.0 0.00 0.00 0.00 95 1012.7
20260903053035 17 138 9.7 0.0 0.00 0.00 0.00 95 1012.6
20260903052536 17 138 8.0 0.0 0.00 0.00 0.00 95 1012.8
20260903052034 17 124 6.4 0.0 0.00 0.00 0.00 95 1012.8
20260903051533 17 162 4.8 0.0 0.00 0.00 0.00 95 1013.0
20260903051034 17 130 6.4 0.0 0.00 0.00 0.00 95 1013.1
20260903050533 17 130 6.4 0.0 0.00 0.00 0.00 95 1013.1
20260903050034 17 128 4.8 0.0 0.00 0.00 0.00 95 1013.1
20260903045533 17 148 3.2 0.0 0.00 0.00 0.00 95 1013.2
20260903045036 17 148 3.2 0.0 0.00 0.00 0.00 95 1013.1
20260903044536 17 157 6.4 0.0 0.00 0.00 0.00 95 1013.0
20260903044035 17 150 8.0 0.0 0.00 0.00 0.00 95 1013.2
20260903043532 17 128 3.2 0.0 0.00 0.00 0.00 95 1013.2
20260903043040 17 215 4.8 0.0 0.00 0.00 0.00 95 1013.1
20260903042532 17 221 6.4 0.0 0.00 0.00 0.00 95 1013.2
20260903042032 17 128 4.8 0.0 0.00 0.00 0.00 94 1013.1
20260903041531 17 147 6.4 0.0 0.00 0.00 0.00 94 1012.9
20260903041030 17 190 6.4 0.0 0.00 0.00 0.00 94 1012.8
20260903040530 17 154 6.4 0.0 0.00 0.00 0.00 94 1012.7
20260903040029 17 172 11.3 0.0 0.00 0.00 0.00 94 1012.8
20260903035530 17 142 14.5 0.0 0.00 0.00 0.00 94 1012.1
20260903035028 17 143 14.5 0.0 0.00 0.00 0.00 94 1012.2
20260903034538 17 135 14.5 0.0 0.00 0.00 0.00 93 1012.5
20260903034025 17 152 14.5 0.0 0.00 0.00 0.00 93 1012.8
20260903033524 17 127 14.5 0.0 0.00 0.00 0.00 92 1013.3
20260903033023 17 134 12.9 0.0 0.00 0.00 0.00 92 1013.5
20260903032526 17 118 11.3 0.0 0.00 0.00 0.00 92 1013.9
20260903032021 17 122 11.3 0.0 0.00 0.00 0.00 91 1013.9
20260903031521 17 164 9.7 0.0 0.00 0.00 0.00 90 1013.9
20260903031021 17 151 11.3 0.0 0.00 0.00 0.00 90 1013.9
20260903030521 17 134 11.3 0.0 0.00 0.00 0.00 89 1014.0
20260903030021 17 138 11.3 0.0 0.00 0.00 0.00 89 1013.9
20260903025520 17 158 11.3 0.0 0.00 0.00 0.00 88 1013.9
20260903025020 17 151 11.3 0.0 0.00 0.00 0.00 88 1013.9
20260903024520 17 149 11.3 0.0 0.00 0.00 0.00 88 1014.0
20260903024019 17 138 9.7 0.0 0.00 0.00 0.00 88 1014.1
20260903023518 17 126 9.7 0.0 0.00 0.00 0.00 87 1014.1
20260903023019 17 123 11.3 0.0 0.00 0.00 0.00 87 1014.2
20260903022518 17 135 12.9 0.0 0.00 0.00 0.00 87 1014.2
20260903022018 17 120 11.3 0.0 0.00 0.00 0.00 87 1014.1
20260903021522 17 132 8.0 0.0 0.00 0.00 0.00 87 1014.2
20260903021017 17 153 6.4 0.0 0.00 0.00 0.00 86 1014.4
20260903020518 17 140 9.7 0.0 0.00 0.00 0.00 86 1014.5
20260903020036 17 147 8.0 0.0 0.00 0.00 0.00 86 1014.7
20260903015522 17 146 8.0 0.0 0.00 0.00 0.00 86 1014.8
20260903015018 17 127 8.0 0.0 0.00 0.00 0.00 86 1015.2
20260903014517 17 158 8.0 0.0 0.00 0.00 0.00 86 1015.3
20260903014018 17 165 6.4 0.0 0.00 0.00 0.00 86 1015.1
20260903013520 17 151 8.0 0.0 0.00 0.00 0.00 86 1015.1
20260903013016 17 144 8.0 0.0 0.00 0.00 0.00 86 1015.2
20260903012518 17 150 8.0 0.0 0.00 0.00 0.00 86 1015.3
20260903012020 17 130 4.8 0.0 0.00 0.00 0.00 85 1015.3
20260903011516 17 136 4.8 0.0 0.00 0.00 0.00 85 1015.4
20260903011016 17 164 3.2 0.0 0.00 0.00 0.00 84 1015.5
20260903010515 17 175 3.2 0.0 0.00 0.00 0.00 84 1015.6
20260903010016 18 204 1.6 0.0 0.00 0.00 0.00 84 1015.7
20260903005517 18 178 3.2 0.0 0.00 0.00 0.00 83 1015.8
20260903005015 17 183 4.8 0.0 0.00 0.00 0.00 83 1015.6
20260903004515 18 171 4.8 0.0 0.00 0.00 0.00 84 1015.9
20260903004020 18 237 3.2 0.0 0.00 0.00 0.00 83 1015.8
20260903003515 18 219 3.2 0.0 0.00 0.00 0.00 84 1015.6
20260903003014 18 170 4.8 0.0 0.00 0.00 0.00 84 1015.5
20260903002514 18 141 6.4 0.0 0.00 0.00 0.00 84 1015.6
20260903002014 18 146 6.4 0.0 0.00 0.00 0.00 84 1015.4
20260903001514 18 149 6.4 0.0 0.00 0.00 0.00 85 1015.4
20260903001013 18 219 8.0 0.0 0.00 0.00 0.00 84 1015.3
20260903000519 18 158 8.0 0.0 0.00 0.00 0.00 85 1015.3
20260903000014 18 185 8.0 0.0 0.00 0.00 0.00 85 1015.0
20260902235514 18 153 9.7 0.0 0.00 0.00 0.00 85 1014.8
20260902235013 18 172 11.3 0.0 0.00 0.00 0.00 86 1014.5
20260902234518 18 155 9.7 0.0 0.00 0.00 0.00 86 1014.3
20260902234013 18 148 11.3 0.0 0.00 0.00 0.00 86 1014.2
20260902233512 18 156 14.5 0.0 0.00 0.00 0.00 85 1014.0
20260902233015 18 167 12.9 0.0 0.00 0.00 0.00 86 1014.1
20260902232512 18 121 11.3 0.0 0.00 0.00 0.00 86 1014.4
20260902232011 18 150 9.7 0.0 0.00 0.00 0.00 86 1014.1
20260902231515 18 119 9.7 0.0 0.00 0.00 0.00 86 1014.3
20260902231011 18 122 11.3 0.0 0.00 0.00 0.00 86 1014.2
20260902230510 18 134 11.3 0.0 0.00 0.00 0.00 86 1014.1
20260902230009 18 171 6.4 0.0 0.00 0.00 0.00 86 1014.8
20260902225507 18 149 3.2 0.0 0.00 0.00 0.00 86 1015.3
20260902225007 18 217 4.8 0.0 0.00 0.00 0.00 86 1015.5
20260902224506 18 148 3.2 0.0 0.00 0.00 0.00 86 1015.8
20260902224005 18 159 1.6 0.0 0.00 0.00 0.00 86 1016.0
20260902223505 18 150 1.6 0.0 0.00 0.00 0.00 86 1016.3
20260902223005 18 139 1.6 0.0 0.00 0.00 0.00 85 1016.3
20260902222505 18 128 3.2 0.0 0.00 0.00 0.00 86 1016.4
20260902222004 18 119 3.2 0.0 0.00 0.00 0.00 85 1016.4
20260902221506 18 135 4.8 0.0 0.00 0.00 0.00 86 1016.5
20260902221004 18 185 6.4 0.0 0.00 0.00 0.00 86 1016.6
20260902220504 18 175 4.8 0.0 0.00 0.00 0.00 86 1016.5
20260902220005 18 121 3.2 0.0 0.00 0.00 0.00 86 1016.5
20260902215503 18 198 3.2 0.0 0.00 0.00 0.00 86 1016.6
20260902215003 18 148 3.2 0.0 0.00 0.00 0.00 86 1016.7
20260902214504 18 224 4.8 0.0 0.00 0.00 0.00 87 1016.6
20260902214004 18 119 4.8 0.0 0.00 0.00 0.00 86 1016.7
20260902213502 18 244 8.0 0.0 0.00 0.00 0.00 85 1016.9
20260902213002 18 196 9.7 0.0 0.00 0.00 0.00 86 1016.8
20260902212503 18 144 9.7 0.0 0.00 0.00 0.00 86 1016.7
20260902212002 19 148 9.7 0.0 0.00 0.00 0.00 85 1016.6
20260902211502 19 148 9.7 0.0 0.00 0.00 0.00 86 1016.6
20260902211002 19 129 9.7 0.0 0.00 0.00 0.00 85 1016.6
20260902210502 19 159 8.0 0.0 0.00 0.00 0.00 85 1016.6
20260902210004 19 146 9.7 0.0 0.00 0.00 0.00 85 1016.8
20260902205504 19 225 8.0 0.0 0.00 0.00 0.00 85 1016.9
20260902205003 19 142 8.0 0.0 0.00 0.00 0.00 85 1016.9
20260902204505 19 117 11.3 0.0 0.00 0.00 0.00 85 1016.9
20260902204001 19 121 12.9 0.0 0.00 0.00 0.00 85 1016.7
20260902203500 19 128 9.7 0.0 0.00 0.00 0.00 85 1016.6
20260902203102 19 167 9.7 0.0 0.00 0.00 0.00 84 1016.7
20260902202559 19 136 9.7 0.0 0.00 0.00 0.00 86 1016.7
20260902202059 19 147 12.9 0.0 0.00 0.00 0.00 86 1016.6
20260902201605 19 148 14.5 0.0 0.00 0.00 0.00 86 1016.4
20260902201100 19 117 12.9 0.0 0.00 0.00 0.00 87 1016.6
20260902200556 19 159 12.9 0.0 0.00 0.00 0.00 86 1016.8
20260902200056 18 126 12.9 0.0 0.00 0.00 0.00 86 1017.1
20260902195555 18 141 11.3 0.0 0.00 0.00 0.00 86 1016.9
20260902195057 18 130 9.7 0.0 0.00 0.00 0.00 87 1017.1
20260902194556 18 145 8.0 0.0 0.00 0.00 0.00 87 1017.2
20260902194056 18 155 6.4 0.0 0.00 0.00 0.00 87 1017.1
20260902193554 18 149 8.0 0.0 0.00 0.00 0.00 86 1017.0
20260902193058 18 122 11.3 0.0 0.00 0.00 0.00 87 1016.8
20260902192553 18 149 12.9 0.0 0.00 0.00 0.00 86 1016.9
20260902192053 18 125 11.3 0.0 0.00 0.00 0.00 87 1017.1
20260902191553 18 77 11.3 0.0 0.00 0.00 0.00 86 1017.3
20260902191052 18 136 12.9 0.0 0.00 0.00 0.00 86 1016.9
20260902190552 18 163 12.9 0.0 0.00 0.00 0.00 87 1016.9